Location: Miss�
(46.9484°N, 0.1922°W)
Time: 02:53:53
(UTC+00:00)

Okean 1-7 - Pass Details

Date: 02 March 2021
Orbit: 589 x 619 km, 82.5° (Epoch: 12 April)

Event Time Altitude Azimuth Distance (km) Brightness Sun altitude
Rises 19:21:48 0° 353° (N) 2,899 6.7 -16.8°
Reaches altitude 10° 19:24:04 10° 356° (N) 1,985 5.8 -17.2°
Maximum altitude 19:28:26 67° 79° (E) 667 2.9 -17.9°
Enters shadow 19:31:33 18° 159° (SSE) 1,490 4.7 -18.4°
